This is the latest recevied weather packets stored in our database for station/object G7GQA-4. If no packets are shown the sender has not sent any weather packets the latest 10 day(s).
| Time | Temp. | Humidity | Pressure | Rain* | Wind** | Luminosity | Snow |
|---|---|---|---|---|---|---|---|
| 1778252731 | 17.22° C | 58% | - | 0 mm | - | 242 W/m² | - |
| 1778252131 | 17.78° C | 60% | - | 0 mm | - | 324 W/m² | - |
| 1778251531 | 17.22° C | 61% | - | 0 mm | - | 385 W/m² | - |
| 1778250930 | 16.67° C | 63% | - | 0 mm | - | 252 W/m² | - |
| 1778250330 | 16.67° C | 62% | - | 0 mm | - | 108 W/m² | - |
| 1778249731 | 16.67° C | 62% | - | 0 mm | - | 162 W/m² | - |
| 1778249130 | 16.67° C | 61% | - | 0 mm | - | 278 W/m² | - |
| 1778248530 | 17.22° C | 59% | - | 0 mm | - | 285 W/m² | - |
| 1778247930 | 17.22° C | 59% | - | 0 mm | - | 439 W/m² | - |
| 1778247330 | 17.78° C | 57% | - | 0 mm | - | 644 W/m² | - |
| 1778246730 | 17.78° C | 57% | - | 0 mm | - | 600 W/m² | - |
| 1778246130 | 17.22° C | 58% | - | 0 mm | - | 714 W/m² | - |
| 1778245530 | 17.78° C | 58% | - | 0 mm | - | 395 W/m² | - |
| 1778244930 | 17.78° C | 57% | - | 0 mm | - | 566 W/m² | - |
| 1778244330 | 16.67° C | 61% | - | 0 mm | - | 529 W/m² | - |
| 1778243730 | 16.67° C | 60% | - | 0 mm | - | 215 W/m² | - |
| 1778243130 | 17.22° C | 58% | - | 0 mm | - | 512 W/m² | - |
| 1778242530 | 17.22° C | 60% | - | 0 mm | - | 367 W/m² | - |
| 1778241930 | 16.67° C | 62% | - | 0 mm | - | 314 W/m² | - |
| 1778241330 | 16.67° C | 63% | - | 0 mm | - | 187 W/m² | - |
| 1778240730 | 16.67° C | 62% | - | 0 mm | - | 407 W/m² | - |
| 1778240130 | 16.11° C | 63% | - | 0 mm | - | 136 W/m² | - |
| 1778239530 | 17.22° C | 61% | - | 0 mm | - | 412 W/m² | - |
| 1778238930 | 17.22° C | 61% | - | 0 mm | - | 515 W/m² | - |
| 1778238330 | 16.67° C | 62% | - | 0 mm | - | 765 W/m² | - |
* Rain latest hour (hover to see other rain measurements)
** Current wind speed in m/s (hover to see current wind gust speed)